Find Starlink 32864

NORAD ID: 62862 Int'l Des: 2025-022 Owner: SPXS Country: US Constellation: starlink operational
LEOCIRCULAR

Live Position

Loading 3D Globe...

About Starlink 32864

Description loading...

Upcoming Passes

Passes for default location (London). Set your location on the main map for personalized predictions.

Altitude History

Loading altitude history...

Two-Line Element Set

1 62862U 25022J 26124.55033185 .00022227 00000-0 76021-3 0 9994
2 62862 53.1616 230.0621 0001504 92.0114 268.1059 15.30204960 70456
Epoch: May 4, 2026 • Age: 15 hours

Current Status

Altitude 476.0 km
Velocity 7.63 km/s
Sub-Earth Point -0.27°S, 122.83°E
Launch Date Feb 2, 2025
Age 1.2 years
Type internet

Technical Details

Classification Payload
Mass 730.00 kg
Dry Mass 700.00 kg
Total Mass 730.00 kg
Length 0.30 m
Diameter 4.10 m
Span 29.00 m
Shape Box + pan
Manufacturer SPXS
Bus Type Starlink V2M
Phase Status In Orbit
Owner/State SPXS/US

Most Searched